SCP
0 -0 0 -0 -0 0 0 0 0 1 0 0 0 0 -0 0 0 0 0 0 0 0 0 0 0 0 0 0 0 0 0 0 0
0 0 -0 -0 0 -0 -0 0 0 0 0 0 0 0 0 0 -0 0 0 0 0 0 0 0 0 0 0 0 0 0 0 0 0
0 0 0 0 -0 -0 0 -0 0 0 0 0 0 0 0 0 0 0 0 0 1 0 0 0 0 0 0 0 0 0 0 0 0
0 0 0 -0 -0 -0 0 0 0 1 1 0 0 0 0 -0 -0 -0 0 1 1 0 0 0 0 0 0 0 0 0 0 0 0
0 0 -0 0 -0 -0 0 0 1 0 1 1 0 0 0 0 0 0 0 1 1 1 0 0 0 0 0 0 0 0 0 0 0
0 0 0 0 0 0 0 0 0 1 0 0 0 0 0 1 0 0 1 1 1 1 1 0 0 0 0 0 0 0 0 0 0
1 0 0 0 0 0 0 0 0 0 0 0 0 0 0 0 0 0 1 1 1 1 0 0 0 0 0 0 0 0 0 0 0
1 1 0 0 0 0 0 0 0 0 0 0 0 0 0 0 0 0 0 0 0 1 0 0 1 1 0 0 0 0 0 0 0
0 0 0 0 0 0 0 0 0 0 0 0 0 0 0 0 0 0 0 0 0 0 0 0 0 0 0 0 0 0 0 0 0
0 0 0 0 0 0 0 0 0 0 0 0 0 0 0 0 0 0 0 0 0 0 -0 0 0 0 0 0 0 0 0 0 0
0 0 0 0 0 0 0 0 0 0 0 0 0 0 0 0 0 0 0 0 0 0 0 0 0 0 0 0 0 0 0 0 0
0 0 0 0 0 0 0 0 0 0 0 0 0 0 0 0 0 0 0 0 0 0 0 0 0 0 0 0 0 0 0 0 0
0 0 0 0 0 0 0 0 0 0 0 0 0 0 0 0 0 0 0 0 0 0 0 0 0 0 0 0 0 0 0 0 0
0 0 0 0 0 0 0 0 0 0 0 0 0 0 0 0 0 0 0 0 0 0 0 0 0 0 0 0 0 0 0 0 0
0 0 0 0 0 0 0 0 0 0 0 0 0 0 0 0 0 0 0 0 0 0 0 0 0 0 0 0 0 0 0 0 0
0 0 0 0 0 0 0 0 0 0 0 0 0 0 0 0 0 0 0 0 0 0 0 0 0 0 0 0 0 0 0 0 0
0 0 0 0 0 0 0 0 0 0 0 0 0 0 0 0 0 0 0 0 0 0 0 0 0 0 0 0 0 0 0 0 0
0 0 0 0 0 0 0 0 0 0 0 0 0 0 0 0 0 0 0 0 0 0 0 0 0 0 0 0 0 0 0 0 0
0 0 0 0 0 0 0 0 0 0 0 0 0 0 0 0 0 0 0 0 0 0 0 0 0 0 0 0 0 0 0 0 0
0 0 0 0 0 0 0 0 0 0 0 0 0 0 0 0 0 0 0 0 0 0 0 0 0 0 0 0 0 0 0 0 0
Wind_Speed_500mb
18 4 18 31 28 36 41 46 30 35 37 44 47 59 82 78 84 46 48 46 50 45 41 32 26 23 28 29 30 34 41 48 46
26 15 15 18 29 33 42 24 25 37 23 37 48 54 41 85 54 42 43 47 48 51 40 34 31 31 32 31 23 45 51 41 42
36 16 45 35 35 28 9 7 4 33 38 29 38 29 40 44 47 41 41 46 47 48 37 35 36 40 45 36 36 39 40 37 25
38 32 60 41 19 6 14 20 16 20 32 25 21 29 29 44 34 44 46 45 40 37 31 31 35 42 45 48 21 8 21 34 30
18 30 35 39 25 9 12 24 15 8 6 17 16 16 19 27 33 32 39 36 40 36 29 25 26 30 40 42 43 44 40 43 39
31 41 37 35 25 15 14 16 2 2 9 11 11 15 20 25 22 24 23 22 25 26 25 25 28 32 35 37 46 54 44 36 38
33 37 36 27 22 23 14 16 15 10 8 8 12 18 17 13 13 15 16 13 14 15 16 21 21 25 24 21 28 39 38 34 36
28 29 26 18 14 14 14 13 14 19 18 19 21 22 23 22 19 21 22 23 20 17 16 13 13 12 21 20 23 30 31 32 37
18 5 10 16 23 26 26 30 33 37 38 36 38 28 24 26 22 31 33 33 32 29 25 24 20 18 12 8 11 16 19 29 34
27 22 23 25 23 22 24 25 26 29 32 34 35 42 41 36 35 38 39 41 44 41 35 33 34 33 28 24 22 20 22 26 27
24 22 21 21 22 23 23 23 27 33 33 36 39 43 45 45 45 41 43 39 40 43 40 34 35 38 44 47 44 40 37 35 37
22 24 26 30 35 39 39 42 44 43 37 34 38 46 54 55 52 53 53 50 45 43 44 43 44 43 43 44 47 46 51 51 54
24 30 36 43 49 54 58 60 61 63 60 56 52 50 47 41 37 44 52 55 51 51 54 56 56 54 54 55 59 55 54 58 63
26 35 43 48 51 51 49 48 47 50 55 59 61 62 60 53 53 53 51 50 49 53 59 61 64 69 67 67 67 65 62 59 61
40 46 47 45 48 48 41 39 43 49 53 56 57 60 64 59 57 59 61 69 70 70 68 69 71 75 78 78 76 72 68 65 62
42 41 38 41 45 50 51 51 50 55 52 54 55 54 52 53 56 58 59 61 66 68 68 66 70 73 79 83 79 75 69 65 59
36 37 37 40 48 52 54 52 54 52 50 51 57 56 55 55 57 57 51 50 56 61 61 68 71 69 75 74 73 69 63 54 48
28 30 32 38 40 44 44 47 50 53 54 61 64 64 64 67 65 59 57 53 50 48 49 50 55 57 57 61 65 63 52 47 42
25 27 30 34 37 41 47 56 61 68 75 73 66 66 65 63 61 56 49 54 52 47 47 49 51 56 54 55 56 51 44 46 44
26 28 32 37 43 49 56 62 70 79 86 71 61 61 61 60 56 48 44 40 47 49 52 47 46 47 54 52 53 51 50 48 47
Wind_Direction_500mb
85 230 282 273 271 256 236 260 268 266 236 228 231 1 271 264 264 269 267 256 253 257 259 264 267 272 258 260 266 269 268 271 270
61 51 335 314 296 279 266 269 251 231 226 249 259 282 243 238 261 260 274 269 265 263 263 266 265 256 254 252 269 282 276 267 257
133 144 278 281 295 311 327 35 254 214 267 266 279 261 277 256 262 267 275 268 266 268 268 268 265 259 256 254 253 297 249 274 231
174 196 219 263 260 328 59 71 20 297 279 261 299 285 279 261 271 268 277 269 266 268 279 269 263 259 266 269 255 250 265 257 236
183 198 219 234 231 214 84 90 25 342 311 263 269 283 280 281 279 278 279 282 269 272 279 280 270 264 268 267 250 261 259 235 245
183 206 229 222 223 238 333 333 85 154 305 324 305 290 278 275 286 296 295 288 276 279 281 277 276 276 274 266 259 258 272 242 257
165 196 209 222 244 268 292 304 273 269 269 246 290 316 320 316 315 341 349 338 314 311 300 288 291 289 285 279 272 273 264 260 258
148 170 195 219 246 271 280 276 271 272 272 280 281 281 297 303 313 329 342 344 340 339 332 325 326 318 271 261 260 266 264 258 258
66 17 298 303 319 324 310 297 288 283 272 279 274 264 277 286 288 302 312 318 321 316 313 309 304 302 298 293 281 277 268 265 262
72 52 33 21 5 352 340 334 325 317 314 296 286 266 271 272 281 286 283 294 304 307 302 291 285 283 280 277 274 269 276 284 280
51 39 25 12 356 342 336 319 302 299 292 288 289 281 277 272 268 268 271 277 280 284 282 286 288 279 276 276 274 272 270 270 275
24 10 356 342 334 327 318 314 313 313 307 306 294 285 277 274 273 270 270 264 265 272 273 279 286 282 280 280 284 284 271 268 266
345 339 335 330 325 319 314 310 307 303 298 295 294 295 291 289 289 278 272 270 267 271 274 275 274 278 278 279 284 285 284 274 267
338 338 335 330 325 324 325 326 324 316 310 304 298 293 288 287 278 275 272 272 272 270 266 265 266 268 271 273 276 278 277 276 268
335 333 333 335 335 335 341 338 332 326 324 324 317 302 296 290 281 274 274 273 270 269 267 266 263 263 263 264 269 271 273 275 262
333 334 341 346 351 346 348 345 342 334 332 326 317 317 310 297 290 288 286 282 276 274 272 270 265 263 263 264 264 267 272 272 265
345 349 347 348 341 337 332 329 326 321 318 310 303 307 304 305 305 297 296 296 286 278 273 269 267 269 264 264 265 269 271 265 266
349 351 352 351 346 343 337 338 345 344 336 326 317 307 299 295 295 297 298 295 293 286 279 274 275 272 270 269 264 266 266 267 268
0 4 13 7 357 3 1 354 349 346 345 337 331 322 316 309 299 286 288 294 294 293 286 283 271 265 262 264 264 264 259 259 263
33 27 16 5 5 1 359 357 356 350 344 342 335 329 324 320 316 305 277 289 303 293 304 292 281 268 255 256 257 261 260 261 264
Wind_Speed_850mb
18 4 18 31 28 36 41 46 30 35 37 44 47 59 82 78 84 46 48 46 50 45 41 32 26 23 28 29 30 34 41 48 46
26 15 15 18 29 33 42 24 25 37 23 37 48 54 41 85 54 42 43 47 48 51 40 34 31 31 32 31 23 45 51 41 42
36 16 45 35 35 28 9 7 4 33 38 29 38 29 40 44 47 41 41 46 47 48 37 35 36 40 45 36 36 39 40 37 25
38 32 60 41 19 6 14 20 16 20 32 25 21 29 29 44 34 44 46 45 40 37 31 31 35 42 45 48 21 8 21 34 30
18 30 35 39 25 9 12 24 15 8 6 17 16 16 19 27 33 32 39 36 40 36 29 25 26 30 40 42 43 44 40 43 39
31 41 37 35 25 15 14 16 2 2 9 11 11 15 20 25 22 24 23 22 25 26 25 25 28 32 35 37 46 54 44 36 38
33 37 36 27 22 23 14 16 15 10 8 8 12 18 17 13 13 15 16 13 14 15 16 21 21 25 24 21 28 39 38 34 36
28 29 26 18 14 14 14 13 14 19 18 19 21 22 23 22 19 21 22 23 20 17 16 13 13 12 21 20 23 30 31 32 37
18 5 10 16 23 26 26 30 33 37 38 36 38 28 24 26 22 31 33 33 32 29 25 24 20 18 12 8 11 16 19 29 34
27 22 23 25 23 22 24 25 26 29 32 34 35 42 41 36 35 38 39 41 44 41 35 33 34 33 28 24 22 20 22 26 27
24 22 21 21 22 23 23 23 27 33 33 36 39 43 45 45 45 41 43 39 40 43 40 34 35 38 44 47 44 40 37 35 37
22 24 26 30 35 39 39 42 44 43 37 34 38 46 54 55 52 53 53 50 45 43 44 43 44 43 43 44 47 46 51 51 54
24 30 36 43 49 54 58 60 61 63 60 56 52 50 47 41 37 44 52 55 51 51 54 56 56 54 54 55 59 55 54 58 63
26 35 43 48 51 51 49 48 47 50 55 59 61 62 60 53 53 53 51 50 49 53 59 61 64 69 67 67 67 65 62 59 61
40 46 47 45 48 48 41 39 43 49 53 56 57 60 64 59 57 59 61 69 70 70 68 69 71 75 78 78 76 72 68 65 62
42 41 38 41 45 50 51 51 50 55 52 54 55 54 52 53 56 58 59 61 66 68 68 66 70 73 79 83 79 75 69 65 59
36 37 37 40 48 52 54 52 54 52 50 51 57 56 55 55 57 57 51 50 56 61 61 68 71 69 75 74 73 69 63 54 48
28 30 32 38 40 44 44 47 50 53 54 61 64 64 64 67 65 59 57 53 50 48 49 50 55 57 57 61 65 63 52 47 42
25 27 30 34 37 41 47 56 61 68 75 73 66 66 65 63 61 56 49 54 52 47 47 49 51 56 54 55 56 51 44 46 44
26 28 32 37 43 49 56 62 70 79 86 71 61 61 61 60 56 48 44 40 47 49 52 47 46 47 54 52 53 51 50 48 47
Wind_Direction_850mb
85 230 282 273 271 256 236 260 268 266 236 228 231 1 271 264 264 269 267 256 253 257 259 264 267 272 258 260 266 269 268 271 270
61 51 335 314 296 279 266 269 251 231 226 249 259 282 243 238 261 260 274 269 265 263 263 266 265 256 254 252 269 282 276 267 257
133 144 278 281 295 311 327 35 254 214 267 266 279 261 277 256 262 267 275 268 266 268 268 268 265 259 256 254 253 297 249 274 231
174 196 219 263 260 328 59 71 20 297 279 261 299 285 279 261 271 268 277 269 266 268 279 269 263 259 266 269 255 250 265 257 236
183 198 219 234 231 214 84 90 25 342 311 263 269 283 280 281 279 278 279 282 269 272 279 280 270 264 268 267 250 261 259 235 245
183 206 229 222 223 238 333 333 85 154 305 324 305 290 278 275 286 296 295 288 276 279 281 277 276 276 274 266 259 258 272 242 257
165 196 209 222 244 268 292 304 273 269 269 246 290 316 320 316 315 341 349 338 314 311 300 288 291 289 285 279 272 273 264 260 258
148 170 195 219 246 271 280 276 271 272 272 280 281 281 297 303 313 329 342 344 340 339 332 325 326 318 271 261 260 266 264 258 258
66 17 298 303 319 324 310 297 288 283 272 279 274 264 277 286 288 302 312 318 321 316 313 309 304 302 298 293 281 277 268 265 262
72 52 33 21 5 352 340 334 325 317 314 296 286 266 271 272 281 286 283 294 304 307 302 291 285 283 280 277 274 269 276 284 280
51 39 25 12 356 342 336 319 302 299 292 288 289 281 277 272 268 268 271 277 280 284 282 286 288 279 276 276 274 272 270 270 275
24 10 356 342 334 327 318 314 313 313 307 306 294 285 277 274 273 270 270 264 265 272 273 279 286 282 280 280 284 284 271 268 266
345 339 335 330 325 319 314 310 307 303 298 295 294 295 291 289 289 278 272 270 267 271 274 275 274 278 278 279 284 285 284 274 267
338 338 335 330 325 324 325 326 324 316 310 304 298 293 288 287 278 275 272 272 272 270 266 265 266 268 271 273 276 278 277 276 268
335 333 333 335 335 335 341 338 332 326 324 324 317 302 296 290 281 274 274 273 270 269 267 266 263 263 263 264 269 271 273 275 262
333 334 341 346 351 346 348 345 342 334 332 326 317 317 310 297 290 288 286 282 276 274 272 270 265 263 263 264 264 267 272 272 265
345 349 347 348 341 337 332 329 326 321 318 310 303 307 304 305 305 297 296 296 286 278 273 269 267 269 264 264 265 269 271 265 266
349 351 352 351 346 343 337 338 345 344 336 326 317 307 299 295 295 297 298 295 293 286 279 274 275 272 270 269 264 266 266 267 268
0 4 13 7 357 3 1 354 349 346 345 337 331 322 316 309 299 286 288 294 294 293 286 283 271 265 262 264 264 264 259 259 263
33 27 16 5 5 1 359 357 356 350 344 342 335 329 324 320 316 305 277 289 303 293 304 292 281 268 255 256 257 261 260 261 264